Jerez de la Frontera, Spain

2:11 AM CEST on April 21, 2018 (GMT +0200)
Jerez

Weather History for LEJR - October, 2013

Change the Weather History Date:

Saturday, October 5, 2013

  Actual Average Record
Temperature  
Mean Temperature 70 °F -  
Max Temperature 85 °F 73 °F 91 °F (2011)
Min Temperature 56 °F 54 °F 50 °F (2010)
Cooling Degree Days 6    
Growing Degree Days 20 (Base 50)    
Moisture  
Dew Point 58 °F    
Average Humidity 67    
Maximum Humidity 100    
Minimum Humidity 27    
Precipitation  
Precipitation 0.00 in 0.09 in - ()
Sea Level Pressure  
Sea Level Pressure 30.13 in    
Wind  
Wind Speed 4 mph ()    
Max Wind Speed 12 mph    
Max Gust Speed 18 mph    
Visibility 6.2 miles    
Events Fog    
Averages and records for this station are not official NWS values.
T = Trace of Precipitation, MM = Missing Value Source: Averaged Metar Reports

Daily Weather History Graph

Daily Weather History Graph

Search for Another Location

Airport or City:

Astronomy

Oct. 05, 2013 Rise Set
Actual Time 8:22 AM CEST 8:01 PM CEST
Civil Twilight 7:57 AM CEST 8:27 PM CEST
Nautical Twilight 7:27 AM CEST 8:57 PM CEST
Astronomical Twilight 6:57 AM CEST 9:27 PM CEST
Moon 8:45 AM CEST (10/5) 8:14 PM CEST (10/5)
Length of Visible Light 12h 30m
Length of Day
11h 38m
New Moon, 0% of the Moon is Illuminated
Oct 5
New Moon
Oct 12
First Quarter
Oct 19
Full
Oct 27
Last Quarter
Nov 3
New

Hourly Weather History & Observations

Time (CEST) Temp. Heat Index Dew Point Humidity Pressure Visibility Wind Dir Wind Speed Gust Speed Precip Events Conditions
2:00 AM 63 °F - 62 °F 95% 30.14 in 12 mi ENE 2.3 mph - -  
5:00 AM 59.0 °F - 59.0 °F 100% 30.09 in - Variable 1.2 mph - N/A   Clear
5:30 AM 59.0 °F - 59.0 °F 100% 30.09 in - Variable 1.2 mph - N/A   Clear
6:00 AM 59.0 °F - 59.0 °F 100% 30.09 in - Variable 1.2 mph - N/A   Clear
6:30 AM 57.2 °F - 57.2 °F 100% 30.12 in - Variable 1.2 mph - N/A   Clear
7:00 AM 59.0 °F - 59.0 °F 100% 30.12 in - Variable 1.2 mph - N/A   Clear
7:30 AM 57.2 °F - 57.2 °F 100% 30.12 in - Calm Calm - N/A   Clear
8:00 AM 56 °F - 56 °F 100% 30.14 in 1 mi Calm Calm - - Fog Light Fog
8:00 AM 57.2 °F - 57.2 °F 100% 30.12 in 5.6 mi Calm Calm - N/A Fog Shallow Fog
8:30 AM 57.2 °F - 57.2 °F 100% 30.12 in 6.2 mi Calm Calm - N/A Fog Shallow Fog
9:00 AM 59.0 °F - 59.0 °F 100% 30.15 in 6.2 mi Calm Calm - N/A Fog Shallow Fog
9:30 AM 60.8 °F - 60.8 °F 100% 30.15 in 6.2 mi Variable 2.3 mph - N/A Fog Shallow Fog
9:45 AM 62.6 °F - 62.6 °F 100% 30.15 in - Variable 1.2 mph - N/A   Clear
10:00 AM 64.4 °F - 64.4 °F 100% 30.15 in - Variable 1.2 mph - N/A   Clear
10:30 AM 68.0 °F - 64.4 °F 88% 30.15 in - North 6.9 mph - N/A   Clear
11:00 AM 71.6 °F - 60.8 °F 69% 30.18 in - North 8.1 mph - N/A   Clear
11:30 AM 73.4 °F - 59.0 °F 61% 30.18 in - North 10.4 mph - N/A   Clear
12:00 PM 77.0 °F - 57.2 °F 50% 30.18 in - North 8.1 mph - N/A   Clear
12:30 PM 77.0 °F - 57.2 °F 50% 30.18 in - North 9.2 mph - N/A   Clear
1:00 PM 78.8 °F - 57.2 °F 47% 30.18 in - North 8.1 mph - N/A   Clear
1:30 PM 80.6 °F 80.8 °F 57.2 °F 45% 30.18 in - North 8.1 mph - N/A   Clear
2:00 PM 83 °F - 54 °F 27% 30.17 in - NNW 9.2 mph - -  
2:00 PM 82.4 °F 81.4 °F 53.6 °F 37% 30.15 in - North 9.2 mph - N/A   Clear
2:30 PM 82.4 °F - 51.8 °F 35% 30.15 in - North 11.5 mph - N/A   Clear
3:00 PM 82.4 °F 81.7 °F 55.4 °F 39% 30.15 in - North 8.1 mph - N/A   Clear
3:30 PM 84.2 °F - 51.8 °F 33% 30.12 in - Variable 6.9 mph 18.4 mph N/A   Clear
4:00 PM 84.2 °F - 51.8 °F 33% 30.12 in - NNW 8.1 mph - N/A   Clear
4:30 PM 84.2 °F - 50.0 °F 30% 30.12 in - NNW 5.8 mph - N/A   Clear
5:00 PM 84.2 °F - 50.0 °F 30% 30.12 in - North 5.8 mph - N/A   Clear
5:30 PM 84.2 °F 82.8 °F 53.6 °F 35% 30.12 in - North 8.1 mph - N/A   Clear
6:00 PM 82.4 °F 81.4 °F 53.6 °F 37% 30.12 in - WNW 9.2 mph - N/A   Clear
6:30 PM 80.6 °F 80.5 °F 55.4 °F 42% 30.09 in - WNW 10.4 mph - N/A   Clear
7:00 PM 78.8 °F - 53.6 °F 42% 30.09 in - WNW 9.2 mph - N/A   Clear
7:30 PM 77.0 °F - 55.4 °F 47% 30.09 in - WNW 11.5 mph - N/A   Clear
8:00 PM 75 °F - 58 °F 45% 30.12 in 34 mi WNW 6.9 mph - -   Clear
8:00 PM 75.2 °F - 57.2 °F 53% 30.09 in - WNW 6.9 mph - N/A   Clear
8:30 PM 73.4 °F - 59.0 °F 61% 30.12 in - WNW 8.1 mph - N/A   Clear
9:00 PM 71.6 °F - 60.8 °F 69% 30.12 in - WNW 8.1 mph - N/A   Clear
9:30 PM 69.8 °F - 60.8 °F 73% 30.12 in - WNW 9.2 mph - N/A   Clear
10:00 PM 69.8 °F - 62.6 °F 78% 30.12 in - WNW 8.1 mph - N/A   Clear
10:30 PM 68.0 °F - 62.6 °F 83% 30.12 in - Calm Calm - N/A   Clear
11:00 PM 68.0 °F - 64.4 °F 88% 30.12 in - Variable 1.2 mph - N/A   Clear